Iowa City, IA

10:15 PM CDT on August 24, 2016 (GMT -0500)
Iowa City Municipal

Weather History for KIOW - January, 2013

Change the Weather History Date:

Thursday, January 10, 2013

  Actual Average Record
Temperature  
Mean Temperature 33 °F 22 °F  
Max Temperature 41 °F 30 °F 55 °F (2012)
Min Temperature 24 °F 14 °F -22 °F (1982)
Degree Days  
Heating Degree Days 32 43  
Month to date heating degree days 404 430  
Since 1 July heating degree days 2776 2969  
Cooling Degree Days 0 0  
Month to date cooling degree days 0 0  
Year to date cooling degree days 0 0  
Moisture  
Dew Point 32 °F    
Average Humidity 80    
Maximum Humidity 100    
Minimum Humidity 59    
Precipitation  
Precipitation 0.17 in 0.02 in 0.20 in (1957)
Month to date precipitation 0.17 0.20  
Year to date precipitation 0.17 0.20  
Sea Level Pressure  
Sea Level Pressure 30.08 in    
Wind  
Wind Speed 6 mph (ESE)    
Max Wind Speed 14 mph    
Max Gust Speed 18 mph    
Visibility 6 miles    
Events Rain    
T = Trace of Precipitation, MM = Missing Value Source: NWS Daily Summary

Daily Weather History Graph

Daily Weather History Graph

Search for Another Location

Airport or City:

Trip Planner

Search our weather history database for the weather conditions in past years. The results will help you decide how hot, cold, wet, or windy it might be!

Date:

Astronomy

Jan. 10, 2013 Rise Set
Actual Time 7:32 AM CST 4:55 PM CST
Civil Twilight 7:01 AM CST 5:26 PM CST
Nautical Twilight 6:26 AM CST 6:01 PM CST
Astronomical Twilight 5:53 AM CST 6:34 PM CST
Moon 6:12 AM CST (1/10) 4:04 PM CST (1/10)
Length of Visible Light 10h 25m
Length of Day
9h 23m
Waning Crescent, 2% of the Moon is Illuminated
Jan 10
Waning Crescent
Jan 11
New
Jan 18
First Quarter
Jan 26
Full
Feb 3
Last Quarter

Hourly Weather History & Observations

Time (CST) Temp. Windchill Dew Point Humidity Pressure Visibility Wind Dir Wind Speed Gust Speed Precip Events Conditions
12:52 AM 25.0 °F - 23.0 °F 92% 30.47 in 8.0 mi Calm Calm - N/A   Clear
1:52 AM 24.1 °F - 21.9 °F 91% 30.46 in 10.0 mi Calm Calm - N/A   Clear
2:52 AM 28.0 °F 24.2 °F 25.0 °F 88% 30.45 in 10.0 mi SSW 3.5 mph - N/A   Clear
3:52 AM 28.0 °F - 26.1 °F 92% 30.45 in 10.0 mi Calm Calm - N/A   Clear
4:52 AM 27.0 °F - 25.0 °F 92% 30.43 in 10.0 mi Calm Calm - N/A   Clear
6:52 AM 30.9 °F 26.2 °F 27.0 °F 85% 30.40 in 10.0 mi ESE 4.6 mph - N/A   Clear
8:52 AM 33.1 °F 26.9 °F 25.0 °F 72% 30.35 in 10.0 mi East 6.9 mph - N/A   Clear
9:52 AM 35.1 °F 29.3 °F 25.0 °F 67% 30.32 in 10.0 mi ESE 6.9 mph - N/A   Clear
10:52 AM 37.0 °F 30.4 °F 26.1 °F 65% 30.26 in 10.0 mi East 9.2 mph - N/A   Scattered Clouds
11:52 AM 37.9 °F 34.4 °F 26.1 °F 62% 30.20 in 10.0 mi East 4.6 mph 16.1 mph N/A   Scattered Clouds
12:52 PM 39.0 °F 31.8 °F 27.0 °F 62% 30.13 in 10.0 mi East 11.5 mph - N/A   Scattered Clouds
1:47 PM 39.2 °F 32.0 °F 26.6 °F 61% 30.07 in 10.0 mi East 11.5 mph - 0.00 in   Overcast
1:52 PM 39.9 °F 33.9 °F 27.0 °F 60% 30.09 in 10.0 mi East 9.2 mph - 0.00 in   Overcast
2:52 PM 39.9 °F 33.4 °F 28.0 °F 63% 30.06 in 10.0 mi East 10.4 mph - N/A   Overcast
3:31 PM 37.4 °F 30.8 °F 33.8 °F 87% 30.03 in 2.0 mi ESE 9.2 mph - 0.02 in Rain Light Rain
3:38 PM 37.4 °F 30.3 °F 33.8 °F 87% 30.03 in 1.8 mi ESE 10.4 mph - 0.02 in Rain Light Rain
3:40 PM 35.6 °F 28.6 °F 33.8 °F 93% 30.02 in 2.0 mi ESE 9.2 mph - 0.02 in Rain Light Freezing Rain
3:49 PM 35.6 °F 28.6 °F 33.8 °F 93% 30.02 in 1.5 mi ESE 9.2 mph - 0.03 in Rain Light Freezing Rain
3:52 PM 36.0 °F 28.5 °F 34.0 °F 93% 30.04 in 1.2 mi ESE 10.4 mph - 0.03 in Rain Light Freezing Rain
4:03 PM 35.6 °F 27.5 °F 33.8 °F 93% 30.02 in 3.0 mi ESE 11.5 mph - 0.01 in Rain Light Freezing Rain
4:20 PM 35.6 °F 28.6 °F 33.8 °F 93% 30.01 in 10.0 mi ESE 9.2 mph - 0.01 in   Overcast
4:48 PM 35.6 °F 28.6 °F 33.8 °F 93% 29.99 in 10.0 mi East 9.2 mph - 0.01 in   Overcast
4:52 PM 36.0 °F 29.0 °F 34.0 °F 93% 30.01 in 10.0 mi ESE 9.2 mph - 0.01 in   Overcast
5:34 PM 35.6 °F 28.0 °F 35.6 °F 100% 29.98 in 3.0 mi ESE 10.4 mph - N/A   Overcast
5:43 PM 35.6 °F 28.6 °F 35.6 °F 100% 29.97 in 2.0 mi ESE 9.2 mph - 0.00 in Rain Light Rain
5:52 PM 36.0 °F 28.5 °F 36.0 °F 100% 29.99 in 1.8 mi East 10.4 mph - 0.00 in   Overcast
6:25 PM 35.6 °F 28.6 °F 35.6 °F 100% 29.96 in 1.0 mi ESE 9.2 mph - N/A   Overcast
6:52 PM 36.0 °F 29.6 °F 36.0 °F 100% 29.96 in 1.2 mi East 8.1 mph - 0.01 in Rain Light Rain
7:07 PM 35.6 °F 28.6 °F 35.6 °F 100% 29.93 in 1.0 mi ESE 9.2 mph - 0.00 in   Overcast
7:16 PM 35.6 °F 28.6 °F 35.6 °F 100% 29.93 in 0.8 mi ESE 9.2 mph - 0.00 in   Overcast
7:39 PM 35.6 °F 29.9 °F 35.6 °F 100% 29.90 in 1.0 mi East 6.9 mph - 0.00 in Rain Light Rain
7:47 PM 35.6 °F 30.7 °F 35.6 °F 100% 29.90 in 1.8 mi East 5.8 mph - 0.00 in Rain Light Rain
7:52 PM 36.0 °F 31.1 °F 36.0 °F 100% 29.92 in 2.5 mi ESE 5.8 mph - 0.00 in Rain Light Rain
8:00 PM 35.6 °F 29.9 °F 35.6 °F 100% 29.90 in 4.0 mi ESE 6.9 mph - 0.00 in   Overcast
8:52 PM 36.0 °F 31.1 °F 36.0 °F 100% 29.91 in 4.0 mi ESE 5.8 mph - 0.04 in Rain Rain
9:52 PM 37.0 °F 32.4 °F 37.0 °F 100% 29.87 in 5.0 mi East 5.8 mph - 0.08 in Rain Light Rain
10:52 PM 37.0 °F 32.4 °F 37.0 °F 100% 29.81 in 4.0 mi East 5.8 mph - 0.00 in   Overcast
11:40 PM 37.4 °F 32.8 °F 37.4 °F 100% 29.79 in 1.8 mi ESE 5.8 mph - N/A   Overcast